Tracking 21612 objects as of 20-Oct-2020
HD Live streaming from Space Station
objects crossing your sky now

MINOTAUR DEB

Track MINOTAUR DEB now!
10-day predictions


NORAD ID: 36881
Int'l Code: 2005-011C
Perigee: 746.6 km
Apogee: 755.4 km
Inclination: 99.0 °
Period: 99.7 minutes
Semi major axis: 7122 km
RCS: 0.0044 m2 (small)
Launch date: April 11, 2005
Source: United States (US)
Launch site: AIR FORCE WESTERN TEST RANGE (AFWTR)

Note: This is SATELLITE DEBRIS
aabbcc
Your satellite tracking list
Your tracking list is empty




NASA's NSSDC Master Catalog

Two Line Element Set (TLE):
1 36881U 05011C   20293.74543317 +.00001958 +00000-0 +58150-3 0  9998
2 36881 098.9602 097.9495 0006222 232.4402 127.6222 14.44438163574662
Source of the keplerian elements: AFSPC